Regional Weather Roundup
Issued by NWS

Home | Current Version | Previous Version | Text Only | Print | Product List | Glossary On
Versions: 1 2 3 4 5 6 7 8 9 10 11 12 13 14 15 16 17 18 19 20 21 22 23 24 25 26 27 28 29 30 31 32 33 34 35 36 37 38 39 40 41 42 43 44 45 46 47 48 49 50
000
ASUS43 KDTX 201210
RWRMI
MICHIGAN HOURLY REGIONAL WEATHER ROUNDUP
NATIONAL WEATHER SERVICE DETROIT/PONTIAC MI
800 AM EDT WED AUG 20 2014

NOTE: "FAIR" INDICATES FEW OR NO CLOUDS BELOW 12,000 FEET WITH NO
SIGNIFICANT WEATHER AND/OR OBSTRUCTION TO VISIBILITY.

MIZ047>049-052>055-059>063-066>070-074>076-081>083-201300-
SOUTHEAST LOWER MICHIGAN

CITY           SKY/WX    TMP DP  RH WIND       PRES   REMARKS
ADRIAN         FOG       65  64  97 W5        29.85R VSB 1/4
6HR MIN TEMP:  63; 6HR MAX TEMP:  66;

ALMA           FOG       66  65  97 W6        29.83R VSB 1/2
ANN ARBOR      CLOUDY    66  64  93 W5        29.83R FOG
BAD AXE        CLOUDY    66  66 100 SW6       29.83R FOG
6HR MIN TEMP:  65; 6HR MAX TEMP:  66;

DETROIT CITY   CLOUDY    71  66  84 CALM      29.83R
6HR MIN TEMP:  69; 6HR MAX TEMP:  71; 6HR PCP:  0.01;

DETROIT        CLOUDY    67  65  93 SW6       29.83R FOG
6HR MIN TEMP:  66; 6HR MAX TEMP:  67; 6HR PCP: TRACE;

FLINT          CLOUDY    68  64  87 SW5       29.83R
6HR MIN TEMP:  66; 6HR MAX TEMP:  68;

GROSSE ILE     MOSUNNY   70  66  88 SW3       29.82R FOG
HILLSDALE      CLOUDY    67  67 100 W6        29.85S FOG
6HR MIN TEMP:  65; 6HR MAX TEMP:  67;

HOWELL         CLOUDY    65  65  98 SW5       29.83S FOG
6HR MIN TEMP:  62; 6HR MAX TEMP:  65;


CITY           SKY/WX    TMP DP  RH WIND       PRES   REMARKS
JACKSON        CLOUDY    67  65  93 W5        29.84S FOG
6HR MIN TEMP:  65; 6HR MAX TEMP:  67;

LAMBERTVILLE   SUNNY     68  64  88 W3        29.84R FOG
LANSING        FOG       66  65  96 W5        29.83S VSB 1/4
6HR MIN TEMP:  64; 6HR MAX TEMP:  67;

LAPEER         NOT AVBL
MASON          CLOUDY    66  65  97 W5        29.84R FOG
MONROE         SUNNY     66  64  94 CALM      29.82R FOG
MT. CLEMENS    PTSUNNY   68  68  99 S3        29.82R
6HR MIN TEMP:  67; 6HR MAX TEMP:  69; 6HR PCP:  0.05;

PONTIAC        CLOUDY    67  64  90 W3        29.83R FOG
6HR MIN TEMP:  64; 6HR MAX TEMP:  67;

PORT HOPE        N/A     67  64  90 CALM      29.80R
6HR MIN TEMP:  66; 6HR MAX TEMP:  67;

PORT HURON     CLOUDY    66  66 100 CALM      29.84R
TRI CITIES     CLOUDY    68  66  93 S5        29.82R
6HR MIN TEMP:  67; 6HR MAX TEMP:  69;

YPSILANTI      CLOUDY    70  65  84 W6        29.84R HAZE
6HR MIN TEMP:  68; 6HR MAX TEMP:  71; 6HR PCP: TRACE;

$$
MIZ043>046-050>051-056>058-064>065-071>073-077>080-201300-
SOUTHWEST LOWER MICHIGAN

CITY           SKY/WX    TMP DP  RH WIND       PRES   REMARKS
BATTLE CREEK   MOSUNNY   66  64  93 SW3       29.85R FOG
6HR MIN TEMP:  65; 6HR MAX TEMP:  69;

BENTON HARBOR  SUNNY     67  65  93 CALM      29.83S FOG
6HR MIN TEMP:  63; 6HR MAX TEMP:  70;

BIG RAPIDS     CLOUDY    66  66 100 CALM      29.82R FOG
6HR MIN TEMP:  63; 6HR MAX TEMP:  67;

COLDWATER      CLOUDY    66  65  97 W5        29.85R FOG
6HR MIN TEMP:  65; 6HR MAX TEMP:  68;

HOLLAND        SUNNY     66  64  93 CALM      29.84R
6HR MIN TEMP:  63; 6HR MAX TEMP:  69;

GRAND RAPIDS   MOSUNNY   67  67 100 W5        29.83R FOG
6HR MIN TEMP:  65; 6HR MAX TEMP:  69;

KALAMAZOO      PTSUNNY   67  65  93 CALM      29.84R FOG
6HR MIN TEMP:  65; 6HR MAX TEMP:  70;

MARSHALL       FOG       65  65  99 W5        29.84S VSB 1/4
MUSKEGON       MOSUNNY   65  63  93 CALM      29.82R
6HR MIN TEMP:  62; 6HR MAX TEMP:  66;

$$
MIZ016>042-201300-
NORTHERN LOWER MICHIGAN

CITY           SKY/WX    TMP DP  RH WIND       PRES   REMARKS
ALPENA         CLOUDY    66  65  96 CALM      29.79S FOG
6HR MIN TEMP:  62; 6HR MAX TEMP:  66;

BEAVER ISLAND  FOG       62  62  99 CALM      29.78S VSB 1/2
BELLAIRE       CLOUDY    66  63  90 CALM      29.79R
6HR MIN TEMP:  64; 6HR MAX TEMP:  67;

CADILLAC       FOG       62  62 100 CALM      29.81S VSB 1
CHARLEVOIX     CLOUDY    64  64 100 SW7       29.82R
6HR MIN TEMP:  62; 6HR MAX TEMP:  65;

FRANKFORT      CLOUDY    64  61  90 W3        29.81R FOG
GAYLORD        CLOUDY    64  62  93 SW6       29.81R
6HR MIN TEMP:  63; 6HR MAX TEMP:  64;

GRAYLING       CLOUDY    64  64 100 CALM      29.82R
HARBOR SPRINGS CLOUDY    64  64  97 W3        29.79R FOG
HOUGHTON LAKE  SUNNY     66  64  93 W6        29.81S
6HR MIN TEMP:  63; 6HR MAX TEMP:  66;

MANISTEE       CLOUDY    63  61  94 W6        29.82R
OSCODA         FOG       66  66 100 S5        29.80R VSB 1/4
PELLSTON       CLOUDY    61  60  97 CALM      29.79R FOG
6HR MIN TEMP:  60; 6HR MAX TEMP:  61; 6HR PCP: TRACE;

TRAVERSE CITY  CLOUDY    66  62  87 W9        29.78R
6HR MIN TEMP:  66; 6HR MAX TEMP:  67;

$$
MIZ007>008-015-201300-
EASTERN UPPER MICHIGAN

CITY           SKY/WX    TMP DP  RH WIND       PRES   REMARKS
KINROSS        CLOUDY    61  61 100 E5        29.79R VSB<1/4
6HR MIN TEMP:  59; 6HR MAX TEMP:  61;

MACKINAC ISLAN FOG       59  59 100 E3        29.78S VSB 1/2
6HR MIN TEMP:  58; 6HR MAX TEMP:  59;

NEWBERRY       FOG       59  59 100 NW3       29.79R VSB 1/4
S. S. MARIE    FOG       61  60  97 E3        29.79R VSB 1/4
6HR MIN TEMP:  60; 6HR MAX TEMP:  61;

$$
MIZ004>006-011>014-085-201300-
CENTRAL UPPER MICHIGAN

CITY           SKY/WX    TMP DP  RH WIND       PRES   REMARKS
MANISTIQUE     CLOUDY    58  58  99 NW6       29.79R FOG
ESCANABA       CLOUDY    61  57  88 CALM      29.81R
6HR MIN TEMP:  61; 6HR MAX TEMP:  61;

MENOMINEE      CLOUDY    63  57  82 CALM      29.80S
6HR MIN TEMP:  61; 6HR MAX TEMP:  63;

$$
MIZ001>003-009>011-084-201300-
WESTERN UPPER MICHIGAN

CITY           SKY/WX    TMP DP  RH WIND       PRES   REMARKS
IRON MOUNTAIN  CLOUDY    59  56  89 NW7       29.82S
6HR MIN TEMP:  59; 6HR MAX TEMP:  61; 6HR PCP: TRACE;

HOUGHTON       LGT RAIN  57  55  93 NW7       29.82S VSB<1/4
6HR MIN TEMP:  54; 6HR MAX TEMP:  57; 6HR PCP:  0.09;

COPPER HARBOR    N/A     55  54  96 N8        29.81R
6HR MIN TEMP:  55; 6HR MAX TEMP:  56; 6HR PCP:  0.07;

IRONWOOD       CLOUDY    57  55  94 CALM      29.84R
6HR MIN TEMP:  55; 6HR MAX TEMP:  57;

$$

ABBREVIATIONS USED IN REMARKS
   TC - TEMPERATURE IN CELSIUS
  WCI - WIND CHILL INDEX
   HX - HEAT INDEX
  VSB - VISIBILITY



USA.gov is the U.S. government's official web portal to all federal, state and local government web resources and services.